Regional Weather Roundup
Issued by NWS

Home | Current Version | Previous Version | Text Only | Print | Product List | Glossary On
Versions: 1 2 3 4 5 6 7 8 9 10 11 12 13 14 15 16 17 18 19 20 21 22 23 24 25 26 27 28 29 30 31 32 33 34 35 36 37 38 39 40 41 42 43 44 45 46 47 48 49 50
000
ASUS44 KMEG 270710
RWRTN
TENNESSEE HOURLY STATE WEATHER ROUNDUP
NATIONAL WEATHER SERVICE MEMPHIS TN
200 AM CDT MON MAR 27 2017

TNZ002-004-019-021-049-052-054-088>092-270800-
WEST TENNESSEE

CITY           SKY/WX    TMP DP  RH WIND       PRES   REMARKS
MEMPHIS INTL   CLOUDY    64  54  69 SE5       29.90F
NWS MEMPHIS      N/A     60 N/A N/A MISG        N/A
JACKSON        MOCLDY    55  53  93 CALM      29.93F
DYERSBURG      CLOUDY    57  54  89 E5        29.92F
SOMERVILLE     PTCLDY    59  52  77 CALM      29.91S
BOLIVAR        CLOUDY    54  50  87 CALM      29.93S
PARIS          CLEAR     54  48  82 SE7       29.94F
HUNTINGDON     CLEAR     54  52  94 E3        29.93F
SAVANNAH       CLOUDY    54  54 100 CALM      29.94F
$$

TNZ008-025-027-028-033-062-065-066-270800-
NORTH MIDDLE TENNESSEE

CITY           SKY/WX    TMP DP  RH WIND       PRES   REMARKS
NASHVILLE      MOCLDY    61  54  77 SE6       29.98S
PORTLAND       MOCLDY    61  55  82 CALM      29.98F
CLARKSVILLE    CLOUDY    53  49  86 E3        29.96F
SMYRNA         MOCLDY    56  54  93 SE5       29.99S
COOKEVILLE     PTCLDY    55  52  88 CALM      30.00S
GALLATIN       MOCLDY    57  54  88 CALM      30.01S
CROSSVILLE     CLOUDY    55  51  86 CALM      30.04F
$$

TNZ061-075-076-078-094-096-097-270800-
SOUTH MIDDLE TENNESSEE

CITY           SKY/WX    TMP DP  RH WIND       PRES   REMARKS
FAYETTEVILLE   PTCLDY    61  55  82 S7        30.00S
TULLAHOMA      CLEAR     52  48  87 CALM      30.01S
WINCHESTER     PTCLDY    57  54  88 CALM      30.01S
MCMINNVILLE    CLEAR     52  52 100 CALM      30.01S
COLUMBIA       CLEAR    N/A N/A N/A CALM      29.95F
SHELBYVILLE    CLEAR     61  55  82 SE5       30.00S
$$

TNZ017-018-042-046-047-270800-
NORTHEAST TENNESSEE

CITY           SKY/WX    TMP DP  RH WIND       PRES   REMARKS
TRI CITIES     MOCLDY    57  53  86 CALM      30.05F
ELIZABETHTON   CLOUDY    54  52  94 CALM      30.05F
$$

TNZ012-013-036-069-073-074-270800-
CENTRAL EAST TENNESSEE

CITY           SKY/WX    TMP DP  RH WIND       PRES   REMARKS
KNOXVILLE      PTCLDY    59  52  77 S3        30.01F
OAK RIDGE      PTCLDY    55  51  86 CALM      30.03F
DOWNTOWN KNOXV CLOUDY    57  55  94 CALM      30.02F
GATLINBURG     CLEAR     54  50  87 CALM      30.02F
MORRISTOWN     CLOUDY    57  55  94 CALM      30.02F
JACKSBORO      CLEAR     54  50  87 CALM      30.05R
$$

TNZ083-085-099-270800-
SOUTHEAST TENNESSEE

CITY           SKY/WX    TMP DP  RH WIND       PRES   REMARKS
CHATTANOOGA    CLEAR     56  53  90 CALM      30.02F
$$

SKY/WX REPORTED AS FAIR MEANS FEW OR NO CLOUDS BELOW
12 THOUSAND FEET.




USA.gov is the U.S. government's official web portal to all federal, state and local government web resources and services.